Surface/Precipitation History
05/05/2016 07:08  to  5/6/2016 07:08
Change End Date:
Date/Time
(MDT)
Sf
Temp Chem Water Layer Surface Precipitation
Sfc Pvt Sub Frz Factor Pct Dpth DpthThk IcePct Cond Salin FI Type Intens Accum Rate
05/06/2016 07:07 Wet 47.8F - 60F 32F 5 0% 0.00 in - 0% 0 mhos 6 - None None 0.11 in 0.0 iph
05/06/2016 07:02 Wet 47.8F - 60F 32F 5 0% 0.00 in - 0% 0 mhos 6 - None None 0.11 in 0.0 iph
05/06/2016 06:52 Wet 47.8F - 60F 32F 5 0% 0.00 in - 0% 0 mhos 5 - Rain Moderate 0.11 in 0.0 iph
05/06/2016 06:52 Wet 47.7F - 60F 32F 5 0% 0.00 in - 0% 0 mhos 5 - Rain Moderate 0.11 in 0.0 iph
05/06/2016 06:42 Wet 47.8F - 60F 32F 5 0% 0.00 in - 0% 0 mhos 5 - Rain Slight 0.11 in 0.0 iph
05/06/2016 06:37 Wet 47.7F - 60F 32F 5 0% 0.00 in - 0% 0 mhos 5 - Rain Slight 0.11 in 0.0 iph
05/06/2016 06:32 Wet 47.8F - 60F 32F 5 0% 0.00 in - 0% 0 mhos 5 - Rain Slight 0.11 in 0.0 iph
05/06/2016 06:22 Wet 47.8F - 60F 32F 5 0% 0.00 in - 0% 0 mhos 4 - Rain Slight 0.11 in 0.0 iph
05/06/2016 06:22 Wet 47.7F - 60F 32F 5 0% 0.00 in - 0% 0 mhos 3 - Rain Slight 0.11 in 0.0 iph
05/06/2016 06:12 Wet 48.0F - 61F 32F 5 0% 0.00 in - 0% 0 mhos 4 - Rain Slight 0.10 in 0.1 iph
05/06/2016 06:07 Wet 47.8F - 61F 32F 5 0% 0.00 in - 0% 0 mhos 4 - Rain Slight 0.10 in 0.0 iph
05/06/2016 06:02 Wet 47.8F - 61F 32F 5 0% 0.00 in - 0% 0 mhos 4 - Rain Slight 0.09 in 0.0 iph
05/06/2016 05:52 Wet 48.0F - 61F 32F 5 0% 0.00 in - 0% 0 mhos 4 - Rain Moderate 0.09 in 0.1 iph
05/06/2016 05:52 Wet 48.2F - 61F 32F 5 0% 0.00 in - 0% 0 mhos 4 - Rain Moderate 0.08 in 0.1 iph
05/06/2016 05:42 Wet 48.2F - 61F 32F 5 0% 0.00 in - 0% 0 mhos 6 - Rain Slight 0.08 in 0.0 iph
Date/Time
(MDT)
Sf
Temp Chem Water Layer Surface Precipitation
Sfc Pvt Sub Frz Factor Pct Dpth DpthThk IcePct Cond Salin FI Type Intens Accum Rate
05/06/2016 05:37 Wet 48.2F - 61F 32F 5 0% 0.00 in - 0% 0 mhos 6 - Rain Slight 0.07 in 0.1 iph
05/06/2016 05:32 Wet 48.2F - 61F 32F 5 0% 0.00 in - 0% 0 mhos 7 - Rain Slight 0.07 in 0.0 iph
05/06/2016 05:22 Wet 48.4F - 61F 32F 5 0% 0.00 in - 0% 0 mhos 10 - Rain Slight 0.07 in 0.0 iph
05/06/2016 05:22 Wet 48.4F - 61F 32F 5 0% 0.00 in - 0% 0 mhos 10 - Rain Slight 0.07 in 0.0 iph
05/06/2016 05:12 Wet 48.4F - 61F 32F 5 0% 0.00 in - 0% 0 mhos 9 - Rain Slight 0.07 in 0.0 iph
05/06/2016 05:07 Wet 48.6F - 61F 32F 5 0% 0.00 in - 0% 0 mhos 11 - Rain Slight 0.06 in 0.0 iph
05/06/2016 05:02 Wet 48.6F - 61F 32F 5 0% 0.00 in - 0% 0 mhos 11 - Rain Slight 0.06 in 0.0 iph
05/06/2016 04:52 Wet 48.9F - 61F 32F 5 0% 0.00 in - 0% 0 mhos 7 - Rain Slight 0.06 in 0.0 iph
05/06/2016 04:52 Wet 48.9F - 61F 32F 5 0% 0.00 in - 0% 0 mhos 7 - Rain Slight 0.06 in 0.0 iph
05/06/2016 04:42 Wet 48.9F - 61F 32F 5 0% 0.00 in - 0% 0 mhos 6 - None None 0.06 in 0.0 iph
05/06/2016 04:37 Wet 48.9F - 61F 32F 5 0% 0.00 in - 0% 0 mhos 6 - None None 0.06 in 0.0 iph
05/06/2016 04:32 Wet 48.9F - 61F 32F 5 0% 0.00 in - 0% 0 mhos 6 - None None 0.06 in 0.0 iph
05/06/2016 04:22 Wet 48.9F - 61F 32F 5 0% 0.00 in - 0% 0 mhos 6 - Rain Slight 0.06 in 0.0 iph
05/06/2016 04:22 Wet 48.9F - 61F 32F 5 0% 0.00 in - 0% 0 mhos 6 - Rain Slight 0.06 in 0.0 iph
05/06/2016 04:11 Wet 48.9F - 61F 32F 5 0% 0.00 in - 0% 0 mhos 6 - Rain Slight 0.06 in 0.0 iph
Date/Time
(MDT)
Sf
Temp Chem Water Layer Surface Precipitation
Sfc Pvt Sub Frz Factor Pct Dpth DpthThk IcePct Cond Salin FI Type Intens Accum Rate
05/06/2016 04:07 Wet 48.9F - 61F 32F 5 0% 0.00 in - 0% 0 mhos 6 - None None 0.06 in 0.0 iph
05/06/2016 04:01 Wet 48.9F - 61F 32F 5 0% 0.00 in - 0% 0 mhos 6 - None None 0.06 in 0.0 iph
05/06/2016 03:52 Wet 48.7F - 61F 32F 5 0% 0.00 in - 0% 0 mhos 6 - None None 0.06 in 0.0 iph
05/06/2016 03:51 Wet 48.7F - 61F 32F 5 0% 0.00 in - 0% 0 mhos 6 - None None 0.06 in 0.0 iph
05/06/2016 03:41 Wet 48.9F - 61F 32F 5 0% 0.00 in - 0% 0 mhos 6 - None None 0.06 in 0.0 iph
05/06/2016 03:37 Wet 49.1F - 62F 32F 5 0% 0.00 in - 0% 0 mhos 6 - Rain Slight 0.06 in 0.0 iph
05/06/2016 03:31 Wet 48.9F - 62F 32F 5 0% 0.00 in - 0% 0 mhos 6 - Rain Slight 0.06 in 0.0 iph
05/06/2016 03:22 Wet 49.1F - 62F 32F 5 0% 0.00 in - 0% 0 mhos 6 - Rain Slight 0.05 in 0.0 iph
05/06/2016 03:21 Wet 49.1F - 62F 32F 5 0% 0.00 in - 0% 0 mhos 6 - Rain Slight 0.05 in 0.0 iph
05/06/2016 03:11 Wet 49.1F - 62F 32F 5 0% 0.00 in - 0% 0 mhos 5 - None None 0.05 in 0.0 iph
05/06/2016 03:07 Wet 49.1F - 62F 32F 5 0% 0.00 in - 0% 0 mhos 5 - None None 0.05 in 0.0 iph
05/06/2016 03:01 Wet 48.9F - 62F 32F 5 0% 0.00 in - 0% 0 mhos 5 - None None 0.05 in 0.0 iph
05/06/2016 02:52 Wet 49.6F - 62F 32F 5 0% 0.00 in - 0% 0 mhos 5 - None None 0.05 in 0.0 iph
05/06/2016 02:51 Wet 49.6F - 62F 32F 5 0% 0.00 in - 0% 0 mhos 5 - None None 0.05 in 0.0 iph
05/06/2016 02:41 Wet 50.2F - 62F 32F 5 0% 0.00 in - 0% 0 mhos 5 - None None 0.05 in 0.0 iph
Date/Time
(MDT)
Sf
Temp Chem Water Layer Surface Precipitation
Sfc Pvt Sub Frz Factor Pct Dpth DpthThk IcePct Cond Salin FI Type Intens Accum Rate
05/06/2016 02:37 Wet 50.2F - 62F 32F 5 0% 0.00 in - 0% 0 mhos 5 - None None 0.05 in 0.0 iph
05/06/2016 02:31 Wet 50.4F - 62F 32F 5 0% 0.00 in - 0% 0 mhos 5 - None None 0.05 in 0.0 iph
05/06/2016 02:22 Wet 50.5F - 62F 32F 5 0% 0.00 in - 0% 0 mhos 5 - None None 0.05 in 0.0 iph
05/06/2016 02:21 Wet 50.5F - 62F 32F 5 0% 0.00 in - 0% 0 mhos 5 - None None 0.05 in 0.0 iph
05/06/2016 02:11 Wet 50.4F - 62F 32F 5 0% 0.00 in - 0% 0 mhos 5 - None None 0.05 in 0.0 iph
05/06/2016 02:07 Wet 50.4F - 62F 32F 5 0% 0.00 in - 0% 0 mhos 5 - None None 0.05 in 0.0 iph
05/06/2016 02:01 Wet 50.5F - 62F 32F 5 0% 0.00 in - 0% 0 mhos 5 - None None 0.05 in 0.0 iph
05/06/2016 01:52 Wet 50.7F - 62F 32F 5 0% 0.00 in - 0% 0 mhos 5 - None None 0.05 in 0.0 iph
05/06/2016 01:51 Wet 50.7F - 62F 32F 5 0% 0.00 in - 0% 0 mhos 5 - None None 0.05 in 0.0 iph
05/06/2016 01:41 Wet 51.1F - 62F 32F 5 0% 0.00 in - 0% 0 mhos 5 - None None 0.05 in 0.0 iph
05/06/2016 01:37 Wet 51.3F - 62F 32F 5 0% 0.00 in - 0% 0 mhos 5 - None None 0.05 in 0.0 iph
05/06/2016 01:31 Wet 51.6F - 62F 32F 5 0% 0.00 in - 0% 0 mhos 5 - None None 0.05 in 0.0 iph
05/06/2016 01:22 Wet 51.6F - 62F 32F 5 0% 0.00 in - 0% 0 mhos 5 - Rain Slight 0.05 in 0.0 iph
05/06/2016 01:21 Wet 51.6F - 62F 32F 5 0% 0.00 in - 0% 0 mhos 5 - Rain Slight 0.05 in 0.0 iph
05/06/2016 01:11 Wet 51.3F - 62F 32F 5 0% 0.00 in - 0% 0 mhos 4 - Rain Slight 0.05 in 0.1 iph
Date/Time
(MDT)
Sf
Temp Chem Water Layer Surface Precipitation
Sfc Pvt Sub Frz Factor Pct Dpth DpthThk IcePct Cond Salin FI Type Intens Accum Rate
05/06/2016 01:07 Wet 51.1F - 62F 32F 5 0% 0.00 in - 0% 0 mhos 4 - Rain Moderate 0.04 in 0.1 iph
05/06/2016 01:00 Wet 51.3F - 62F 32F 5 0% 0.00 in - 0% 0 mhos 5 - Rain Moderate 0.03 in 0.1 iph
05/06/2016 00:52 Wet 52.0F - 62F 32F 5 0% 0.00 in - 0% 0 mhos 9 - Rain Slight 0.02 in 0.1 iph
05/06/2016 00:50 Wet 52.2F - 62F 32F 5 0% 0.00 in - 0% 0 mhos 10 - Rain Slight 0.02 in 0.0 iph
05/06/2016 00:40 Wet 52.7F - 62F 32F 5 0% 0.00 in - 0% 0 mhos 14 - Rain Slight 0.01 in 0.1 iph
05/06/2016 00:37 Wet 53.1F - 62F 32F 5 0% 0.00 in - 0% 0 mhos 16 - Rain Slight 0.01 in 0.0 iph
05/06/2016 00:30 Wet 54.0F - 62F 32F 5 0% 0.00 in - 0% 0 mhos 8 - Rain Moderate 0.00 in 0.0 iph
05/06/2016 00:22 Dry 54.5F - 62F - - - - - - 0 mhos 0 - Rain Moderate 0.00 in 0.0 iph
05/06/2016 00:20 Dry 54.7F - 62F - - - - - - 0 mhos 0 - Rain Slight 0.00 in 0.0 iph
05/06/2016 00:10 Dry 55.4F - 62F - - - - - - 0 mhos 0 - None None 0.00 in 0.0 iph
05/06/2016 00:07 Dry 55.4F - 62F - - - - - - 0 mhos 0 - None None 0.00 in 0.0 iph
05/06/2016 00:00 Dry 55.4F - 62F - - - - - - 0 mhos 0 - None None 0.00 in 0.0 iph
05/05/2016 23:52 Dry 55.0F - 62F - - - - - - 0 mhos 0 - None None 0.00 in 0.0 iph
05/05/2016 23:50 Dry 55.0F - 63F - - - - - - 0 mhos 0 - None None 0.00 in 0.0 iph
05/05/2016 23:40 Dry 55.0F - 62F - - - - - - 0 mhos 0 - None None 0.00 in 0.0 iph
Date/Time
(MDT)
Sf
Temp Chem Water Layer Surface Precipitation
Sfc Pvt Sub Frz Factor Pct Dpth DpthThk IcePct Cond Salin FI Type Intens Accum Rate
05/05/2016 23:37 Dry 55.2F - 62F - - - - - - 0 mhos 0 - None None 0.00 in 0.0 iph
05/05/2016 23:30 Dry 55.4F - 62F - - - - - - 0 mhos 0 - None None 0.00 in 0.0 iph
05/05/2016 23:22 Dry 55.6F - 62F - - - - - - 0 mhos 0 - None None 0.00 in 0.0 iph
05/05/2016 23:20 Dry 55.6F - 63F - - - - - - 0 mhos 0 - None None 0.00 in 0.0 iph
05/05/2016 23:10 Dry 55.8F - 62F - - - - - - 0 mhos 0 - None None 0.00 in 0.0 iph
05/05/2016 23:07 Dry 55.9F - 62F - - - - - - 0 mhos 0 - None None 0.00 in 0.0 iph
05/05/2016 23:00 Dry 56.1F - 62F - - - - - - 0 mhos 0 - None None 0.00 in 0.0 iph
05/05/2016 22:52 Dry 56.3F - 62F - - - - - - 0 mhos 0 - None None 0.00 in 0.0 iph
05/05/2016 22:50 Dry 56.5F - 63F - - - - - - 0 mhos 0 - None None 0.00 in 0.0 iph
05/05/2016 22:40 Dry 56.7F - 63F - - - - - - 0 mhos 0 - None None 0.00 in 0.0 iph
05/05/2016 22:37 Dry 56.7F - 63F - - - - - - 0 mhos 0 - None None 0.00 in 0.0 iph
05/05/2016 22:30 Dry 57.0F - 63F - - - - - - 0 mhos 0 - None None 0.00 in 0.0 iph
05/05/2016 22:22 Dry 57.0F - 62F - - - - - - 0 mhos 0 - None None 0.00 in 0.0 iph
05/05/2016 22:20 Dry 57.2F - 62F - - - - - - 0 mhos 0 - None None 0.00 in 0.0 iph
05/05/2016 22:09 Dry 57.6F - 62F - - - - - - 0 mhos 0 - None None 0.00 in 0.0 iph
Date/Time
(MDT)
Sf
Temp Chem Water Layer Surface Precipitation
Sfc Pvt Sub Frz Factor Pct Dpth DpthThk IcePct Cond Salin FI Type Intens Accum Rate
05/05/2016 22:07 Dry 57.6F - 62F - - - - - - 0 mhos 0 - None None 0.00 in 0.0 iph
05/05/2016 21:59 Dry 58.1F - 62F - - - - - - 0 mhos 0 - None None 0.00 in 0.0 iph
05/05/2016 21:52 Dry 58.5F - 62F - - - - - - 0 mhos 0 - None None 0.00 in 0.0 iph
05/05/2016 21:49 Dry 58.3F - 62F - - - - - - 0 mhos 0 - None None 0.00 in 0.0 iph
05/05/2016 21:39 Dry 58.1F - 62F - - - - - - 0 mhos 1 - None None 0.00 in 0.0 iph
05/05/2016 21:37 Dry 57.7F - 62F - - - - - - 0 mhos 1 - None None 0.00 in 0.0 iph
05/05/2016 21:29 Dry 56.8F - 62F - - - - - - 0 mhos 2 - Rain Slight 0.00 in 0.0 iph
05/05/2016 21:22 Wet 58.5F - 62F 32F 5 0% 0.00 in - 0% 0 mhos 3 - Rain Slight 0.00 in 0.0 iph
05/05/2016 21:19 Trace Moisture 58.6F - 62F - 5 - - - - 0 mhos 2 - Rain Slight 0.00 in 0.0 iph
05/05/2016 21:09 Dry 61.2F - 62F - - - - - - 0 mhos 0 - None None 0.00 in 0.0 iph
05/05/2016 21:07 Dry 61.5F - 62F - - - - - - 0 mhos 0 - None None 0.00 in 0.0 iph
05/05/2016 20:59 Dry 61.5F - 62F - - - - - - 0 mhos 0 - None None 0.00 in 0.0 iph
05/05/2016 20:52 Dry 62.1F - 62F - - - - - - 0 mhos 0 - None None 0.00 in 0.0 iph
05/05/2016 20:49 Dry 62.2F - 62F - - - - - - 0 mhos 0 - None None 0.00 in 0.0 iph
05/05/2016 20:39 Dry 63.0F - 62F - - - - - - 0 mhos 0 - None None 0.00 in 0.0 iph
Date/Time
(MDT)
Sf
Temp Chem Water Layer Surface Precipitation
Sfc Pvt Sub Frz Factor Pct Dpth DpthThk IcePct Cond Salin FI Type Intens Accum Rate
05/05/2016 20:37 Dry 63.0F - 62F - - - - - - 0 mhos 0 - None None 0.00 in 0.0 iph
05/05/2016 20:29 Dry 63.3F - 62F - - - - - - 0 mhos 0 - None None 0.00 in 0.0 iph
05/05/2016 20:22 Dry 64.0F - 62F - - - - - - 0 mhos 0 - None None 0.00 in 0.0 iph
05/05/2016 20:19 Dry 64.2F - 62F - - - - - - 0 mhos 0 - None None 0.00 in 0.0 iph
05/05/2016 20:09 Dry 65.3F - 62F - - - - - - 0 mhos 0 - None None 0.00 in 0.0 iph
05/05/2016 20:07 Dry 65.3F - 62F - - - - - - 0 mhos 0 - None None 0.00 in 0.0 iph
05/05/2016 19:59 Dry 66.2F - 62F - - - - - - 0 mhos 0 - None None 0.00 in 0.0 iph
05/05/2016 19:52 Dry 66.6F - 62F - - - - - - 0 mhos 0 - None None 0.00 in 0.0 iph
05/05/2016 19:49 Dry 67.1F - 62F - - - - - - 0 mhos 0 - None None 0.00 in 0.0 iph
05/05/2016 19:39 Dry 67.6F - 62F - - - - - - 0 mhos 0 - None None 0.00 in 0.0 iph
05/05/2016 19:37 Dry 68.0F - 62F - - - - - - 0 mhos 0 - None None 0.00 in 0.0 iph
05/05/2016 19:29 Dry 68.7F - 62F - - - - - - 0 mhos 0 - None None 0.00 in 0.0 iph
05/05/2016 19:22 Dry 69.3F - 62F - - - - - - 0 mhos 0 - None None 0.00 in 0.0 iph
05/05/2016 19:19 Dry 69.3F - 62F - - - - - - 0 mhos 0 - None None 0.00 in 0.0 iph
05/05/2016 19:09 Dry 70.5F - 62F - - - - - - 0 mhos 0 - None None 0.00 in 0.0 iph
Date/Time
(MDT)
Sf
Temp Chem Water Layer Surface Precipitation
Sfc Pvt Sub Frz Factor Pct Dpth DpthThk IcePct Cond Salin FI Type Intens Accum Rate
05/05/2016 19:06 Dry 70.9F - 62F - - - - - - 0 mhos 0 - None None 0.00 in 0.0 iph
05/05/2016 18:59 Dry 71.1F - 62F - - - - - - 0 mhos 0 - None None 0.00 in 0.0 iph
05/05/2016 18:52 Dry 72.1F - 62F - - - - - - 0 mhos 0 - None None 0.00 in 0.0 iph
05/05/2016 18:49 Dry 72.3F - 62F - - - - - - 0 mhos 0 - None None 0.00 in 0.0 iph
05/05/2016 18:38 Dry 73.4F - 62F - - - - - - 0 mhos 0 - None None 0.00 in 0.0 iph
05/05/2016 18:37 Dry 74.1F - 62F - - - - - - 0 mhos 0 - None None 0.00 in 0.0 iph
05/05/2016 18:28 Dry 75.6F - 62F - - - - - - 0 mhos 0 - None None 0.00 in 0.0 iph
05/05/2016 18:22 Dry 77.5F - 62F - - - - - - 0 mhos 0 - None None 0.00 in 0.0 iph
05/05/2016 18:18 Dry 77.9F - 61F - - - - - - 0 mhos 0 - None None 0.00 in 0.0 iph
05/05/2016 18:08 Dry 79.0F - 61F - - - - - - 0 mhos 0 - None None 0.00 in 0.0 iph
05/05/2016 18:07 Dry 78.6F - 61F - - - - - - 0 mhos 0 - None None 0.00 in 0.0 iph
05/05/2016 17:58 Dry 78.8F - 61F - - - - - - 0 mhos 0 - None None 0.00 in 0.0 iph
05/05/2016 17:52 Dry 79.2F - 61F - - - - - - 0 mhos 0 - None None 0.00 in 0.0 iph
05/05/2016 17:48 Dry 79.9F - 61F - - - - - - 0 mhos 0 - None None 0.00 in 0.0 iph
05/05/2016 17:38 Dry 81.3F - 61F - - - - - - 0 mhos 0 - None None 0.00 in 0.0 iph
Date/Time
(MDT)
Sf
Temp Chem Water Layer Surface Precipitation
Sfc Pvt Sub Frz Factor Pct Dpth DpthThk IcePct Cond Salin FI Type Intens Accum Rate
05/05/2016 17:37 Dry 81.3F - 61F - - - - - - 0 mhos 0 - None None 0.00 in 0.0 iph
05/05/2016 17:28 Dry 82.2F - 61F - - - - - - 0 mhos 0 - None None 0.00 in 0.0 iph
05/05/2016 17:22 Dry 84.4F - 61F - - - - - - 0 mhos 0 - None None 0.00 in 0.0 iph
05/05/2016 17:18 Dry 84.4F - 61F - - - - - - 0 mhos 0 - None None 0.00 in 0.0 iph
05/05/2016 17:08 Dry 86.0F - 61F - - - - - - 0 mhos 0 - None None 0.00 in 0.0 iph
05/05/2016 17:07 Dry 86.5F - 61F - - - - - - 0 mhos 0 - None None 0.00 in 0.0 iph
05/05/2016 16:58 Dry 89.8F - 61F - - - - - - 0 mhos 0 - None None 0.00 in 0.0 iph
05/05/2016 16:52 Dry 89.1F - 61F - - - - - - 0 mhos 0 - None None 0.00 in 0.0 iph
05/05/2016 16:48 Dry 87.6F - 61F - - - - - - 0 mhos 0 - None None 0.00 in 0.0 iph
05/05/2016 16:38 Dry 88.5F - 61F - - - - - - 0 mhos 0 - None None 0.00 in 0.0 iph
05/05/2016 16:37 Dry 88.9F - 61F - - - - - - 0 mhos 0 - None None 0.00 in 0.0 iph
05/05/2016 16:28 Dry 88.0F - 61F - - - - - - 0 mhos 0 - None None 0.00 in 0.0 iph
05/05/2016 16:22 Dry 88.5F - 60F - - - - - - 0 mhos 0 - None None 0.00 in 0.0 iph
05/05/2016 16:18 Dry 88.3F - 60F - - - - - - 0 mhos 0 - None None 0.00 in 0.0 iph
05/05/2016 16:08 Dry 83.8F - 60F - - - - - - 0 mhos 0 - None None 0.00 in 0.0 iph
Date/Time
(MDT)
Sf
Temp Chem Water Layer Surface Precipitation
Sfc Pvt Sub Frz Factor Pct Dpth DpthThk IcePct Cond Salin FI Type Intens Accum Rate
05/05/2016 16:07 Dry 83.7F - 60F - - - - - - 0 mhos 0 - None None 0.00 in 0.0 iph
05/05/2016 15:58 Dry 85.1F - 60F - - - - - - 0 mhos 0 - None None 0.00 in 0.0 iph
05/05/2016 15:52 Dry 86.0F - 60F - - - - - - 0 mhos 0 - None None 0.00 in 0.0 iph
05/05/2016 15:48 Dry 86.9F - 60F - - - - - - 0 mhos 0 - None None 0.00 in 0.0 iph
05/05/2016 15:38 Dry 87.6F - 60F - - - - - - 0 mhos 0 - None None 0.00 in 0.0 iph
05/05/2016 15:37 Dry 87.6F - 60F - - - - - - 0 mhos 0 - None None 0.00 in 0.0 iph
05/05/2016 15:28 Dry 88.3F - 60F - - - - - - 0 mhos 0 - None None 0.00 in 0.0 iph
05/05/2016 15:22 Dry 89.6F - 60F - - - - - - 0 mhos 0 - None None 0.00 in 0.0 iph
05/05/2016 15:18 Dry 93.2F - 60F - - - - - - 0 mhos 0 - None None 0.00 in 0.0 iph
05/05/2016 15:08 Dry 92.5F - 60F - - - - - - 0 mhos 0 - None None 0.00 in 0.0 iph
05/05/2016 15:07 Dry 93.4F - 60F - - - - - - 0 mhos 0 - None None 0.00 in 0.0 iph
05/05/2016 14:58 Dry 90.5F - 60F - - - - - - 0 mhos 0 - None None 0.00 in 0.0 iph
05/05/2016 14:52 Dry 91.4F - 60F - - - - - - 0 mhos 0 - None None 0.00 in 0.0 iph
05/05/2016 14:48 Dry 94.1F - 60F - - - - - - 0 mhos 0 - None None 0.00 in 0.0 iph
05/05/2016 14:37 Dry 98.2F - 60F - - - - - - 0 mhos 0 - None None 0.00 in 0.0 iph
Date/Time
(MDT)
Sf
Temp Chem Water Layer Surface Precipitation
Sfc Pvt Sub Frz Factor Pct Dpth DpthThk IcePct Cond Salin FI Type Intens Accum Rate
05/05/2016 14:37 Dry 98.8F - 60F - - - - - - 0 mhos 0 - None None 0.00 in 0.0 iph
05/05/2016 14:27 Dry 98.8F - 60F - - - - - - 0 mhos 0 - None None 0.00 in 0.0 iph
05/05/2016 14:22 Dry 98.1F - 60F - - - - - - 0 mhos 0 - None None 0.00 in 0.0 iph
05/05/2016 14:17 Dry 98.2F - 60F - - - - - - 0 mhos 0 - None None 0.00 in 0.0 iph
05/05/2016 14:07 Dry 97.5F - 60F - - - - - - 0 mhos 0 - None None 0.00 in 0.0 iph
05/05/2016 14:07 Dry 97.9F - 60F - - - - - - 0 mhos 0 - None None 0.00 in 0.0 iph
05/05/2016 13:57 Dry 97.9F - 60F - - - - - - 0 mhos 0 - None None 0.00 in 0.0 iph
05/05/2016 13:52 Dry 97.3F - 60F - - - - - - 0 mhos 0 - None None 0.00 in 0.0 iph
05/05/2016 13:47 Dry 97.9F - 60F - - - - - - 0 mhos 0 - None None 0.00 in 0.0 iph
05/05/2016 13:37 Dry 95.9F - 60F - - - - - - 0 mhos 0 - None None 0.00 in 0.0 iph
05/05/2016 13:37 Dry 96.6F - 60F - - - - - - 0 mhos 0 - None None 0.00 in 0.0 iph
05/05/2016 13:27 Dry 93.9F - 60F - - - - - - 0 mhos 0 - None None 0.00 in 0.0 iph
05/05/2016 13:22 Dry 95.2F - 60F - - - - - - 0 mhos 0 - None None 0.00 in 0.0 iph
05/05/2016 13:17 Dry 94.6F - 60F - - - - - - 0 mhos 0 - None None 0.00 in 0.0 iph
05/05/2016 13:07 Dry 89.8F - 60F - - - - - - 0 mhos 0 - None None 0.00 in 0.0 iph
Date/Time
(MDT)
Sf
Temp Chem Water Layer Surface Precipitation
Sfc Pvt Sub Frz Factor Pct Dpth DpthThk IcePct Cond Salin FI Type Intens Accum Rate
05/05/2016 13:07 Dry 88.5F - 60F - - - - - - 0 mhos 0 - None None 0.00 in 0.0 iph
05/05/2016 12:57 Dry 86.9F - 60F - - - - - - 0 mhos 0 - None None 0.00 in 0.0 iph
05/05/2016 12:52 Dry 91.0F - 60F - - - - - - 0 mhos 0 - None None 0.00 in 0.0 iph
05/05/2016 12:47 Dry 90.1F - 60F - - - - - - 0 mhos 0 - None None 0.00 in 0.0 iph
05/05/2016 12:37 Dry 87.8F - 60F - - - - - - 0 mhos 0 - None None 0.00 in 0.0 iph
05/05/2016 12:37 Dry 87.8F - 60F - - - - - - 0 mhos 0 - None None 0.00 in 0.0 iph
05/05/2016 12:27 Dry 88.3F - 60F - - - - - - 0 mhos 0 - None None 0.00 in 0.0 iph
05/05/2016 12:22 Dry 87.6F - 60F - - - - - - 0 mhos 0 - None None 0.00 in 0.0 iph
05/05/2016 12:17 Dry 85.6F - 60F - - - - - - 0 mhos 0 - None None 0.00 in 0.0 iph
05/05/2016 12:07 Dry 77.5F - 60F - - - - - - 0 mhos 0 - None None 0.00 in 0.0 iph
05/05/2016 12:07 Dry 77.5F - 60F - - - - - - 0 mhos 0 - None None 0.00 in 0.0 iph
05/05/2016 11:57 Dry 73.6F - 60F - - - - - - 0 mhos 0 - None None 0.00 in 0.0 iph
05/05/2016 11:52 Dry 72.3F - 60F - - - - - - 0 mhos 0 - None None 0.00 in 0.0 iph
05/05/2016 11:47 Dry 71.2F - 60F - - - - - - 0 mhos 0 - None None 0.00 in 0.0 iph
05/05/2016 11:37 Dry 70.2F - 60F - - - - - - 0 mhos 0 - None None 0.00 in 0.0 iph
Date/Time
(MDT)
Sf
Temp Chem Water Layer Surface Precipitation
Sfc Pvt Sub Frz Factor Pct Dpth DpthThk IcePct Cond Salin FI Type Intens Accum Rate
05/05/2016 11:37 Dry 70.2F - 60F - - - - - - 0 mhos 0 - None None 0.00 in 0.0 iph
05/05/2016 11:27 Dry 70.2F - 60F - - - - - - 0 mhos 0 - None None 0.00 in 0.0 iph
05/05/2016 11:22 Dry 69.8F - 60F - - - - - - 0 mhos 0 - None None 0.00 in 0.0 iph
05/05/2016 11:17 Dry 68.9F - 60F - - - - - - 0 mhos 0 - None None 0.00 in 0.0 iph
05/05/2016 11:07 Dry 69.1F - 60F - - - - - - 0 mhos 0 - None None 0.00 in 0.0 iph
05/05/2016 11:07 Dry 69.1F - 60F - - - - - - 0 mhos 0 - None None 0.00 in 0.0 iph
05/05/2016 10:57 Dry 69.8F - 60F - - - - - - 0 mhos 0 - None None 0.00 in 0.0 iph
05/05/2016 10:52 Dry 70.2F - 60F - - - - - - 0 mhos 0 - None None 0.00 in 0.0 iph
05/05/2016 10:46 Dry 70.5F - 60F - - - - - - 0 mhos 0 - None None 0.00 in 0.0 iph
05/05/2016 10:37 Dry 71.1F - 60F - - - - - - 0 mhos 0 - None None 0.00 in 0.0 iph
05/05/2016 10:36 Dry 71.1F - 60F - - - - - - 0 mhos 0 - None None 0.00 in 0.0 iph
05/05/2016 10:26 Dry 73.0F - 60F - - - - - - 0 mhos 0 - None None 0.00 in 0.0 iph
05/05/2016 10:22 Dry 74.7F - 60F - - - - - - 0 mhos 0 - None None 0.00 in 0.0 iph
05/05/2016 10:16 Dry 76.6F - 60F - - - - - - 0 mhos 0 - None None 0.00 in 0.0 iph
05/05/2016 10:07 Dry 76.3F - 60F - - - - - - 0 mhos 0 - None None 0.00 in 0.0 iph
Date/Time
(MDT)
Sf
Temp Chem Water Layer Surface Precipitation
Sfc Pvt Sub Frz Factor Pct Dpth DpthThk IcePct Cond Salin FI Type Intens Accum Rate
05/05/2016 10:06 Dry 76.3F - 60F - - - - - - 0 mhos 0 - None None 0.00 in 0.0 iph
05/05/2016 09:56 Dry 77.2F - 60F - - - - - - 0 mhos 0 - None None 0.00 in 0.0 iph
05/05/2016 09:52 Dry 76.3F - 60F - - - - - - 0 mhos 0 - None None 0.00 in 0.0 iph
05/05/2016 09:46 Dry 78.1F - 60F - - - - - - 0 mhos 0 - None None 0.00 in 0.0 iph
05/05/2016 09:37 Dry 77.4F - 60F - - - - - - 0 mhos 0 - None None 0.00 in 0.0 iph
05/05/2016 09:36 Dry 77.4F - 60F - - - - - - 0 mhos 0 - None None 0.00 in 0.0 iph
05/05/2016 09:26 Dry 72.7F - 60F - - - - - - 0 mhos 0 - None None 0.00 in 0.0 iph
05/05/2016 09:22 Dry 73.0F - 60F - - - - - - 0 mhos 0 - None None 0.00 in 0.0 iph
05/05/2016 09:16 Dry 68.7F - 60F - - - - - - 0 mhos 0 - None None 0.00 in 0.0 iph
05/05/2016 09:07 Dry 68.7F - 61F - - - - - - 0 mhos 0 - None None 0.00 in 0.0 iph
05/05/2016 09:06 Dry 68.7F - 61F - - - - - - 0 mhos 0 - None None 0.00 in 0.0 iph
05/05/2016 08:56 Dry 66.7F - 61F - - - - - - 0 mhos 0 - None None 0.00 in 0.0 iph
05/05/2016 08:52 Dry 64.6F - 61F - - - - - - 0 mhos 0 - None None 0.00 in 0.0 iph
05/05/2016 08:46 Dry 63.0F - 61F - - - - - - 0 mhos 0 - None None 0.00 in 0.0 iph
05/05/2016 08:37 Dry 60.6F - 61F - - - - - - 0 mhos 0 - None None 0.00 in 0.0 iph
Date/Time
(MDT)
Sf
Temp Chem Water Layer Surface Precipitation
Sfc Pvt Sub Frz Factor Pct Dpth DpthThk IcePct Cond Salin FI Type Intens Accum Rate
05/05/2016 08:36 Dry 60.4F - 61F - - - - - - 0 mhos 0 - None None 0.00 in 0.0 iph
05/05/2016 08:26 Dry 58.6F - 61F - - - - - - 0 mhos 0 - None None 0.00 in 0.0 iph
05/05/2016 08:22 Dry 58.5F - 61F - - - - - - 0 mhos 0 - None None 0.00 in 0.0 iph
05/05/2016 08:16 Dry 58.3F - 61F - - - - - - 0 mhos 0 - None None 0.00 in 0.0 iph
05/05/2016 08:07 Dry 58.1F - 61F - - - - - - 0 mhos 0 - None None 0.00 in 0.0 iph
05/05/2016 08:06 Dry 57.9F - 61F - - - - - - 0 mhos 0 - None None 0.00 in 0.0 iph
05/05/2016 07:56 Dry 56.1F - 61F - - - - - - 0 mhos 0 - None None 0.00 in 0.0 iph
05/05/2016 07:52 Dry 55.6F - 61F - - - - - - 0 mhos 0 - None None 0.00 in 0.0 iph
05/05/2016 07:46 Dry 54.7F - 61F - - - - - - 0 mhos 0 - None None 0.00 in 0.0 iph
05/05/2016 07:37 Dry 54.0F - 61F - - - - - - 0 mhos 0 - None None 0.00 in 0.0 iph
05/05/2016 07:36 Dry 53.8F - 61F - - - - - - 0 mhos 0 - None None 0.00 in 0.0 iph
05/05/2016 07:26 Dry 53.6F - 61F - - - - - - 0 mhos 0 - None None 0.00 in 0.0 iph
05/05/2016 07:22 Dry 53.2F - 61F - - - - - - 0 mhos 0 - None None 0.00 in 0.0 iph
05/05/2016 07:16 Dry 52.9F - 61F - - - - - - 0 mhos 0 - None None 0.00 in 0.0 iph
Change End Date:

Copyright © 1998-2015 Vaisala, Inc.
All Rights Reserved
Send comments about the data to:
SCAN Web ® is a registered trademark of Vaisala, Inc.
SCAN Web Version 6.0